Location: D�derode
(51.8092°N, 10.1065°E)
Time: 04:22:10
(UTC+00:00)

Cosmos 1869 Rocket - Pass Details

Date: 20 April 2021
Orbit: 604 x 634 km, 82.5° (Epoch: 11 May)

Event Time Altitude Azimuth Distance (km) Brightness Sun altitude
Rises 22:35:06 0° 359° (N) 2,901 8.3 -25.7°
Reaches altitude 10° 22:37:50 10° 16° (NNE) 1,985 7.0 -25.7°
Maximum altitude 22:41:09 21° 65° (ENE) 1,407 5.5 -25.8°
Enters shadow 22:41:31 20° 72° (ENE) 1,415 5.4 -25.8°
